Location: Zagreb
(45.8000°N, 16.0000°E)
Time: 00:58:07
(UTC+02:00)

Courier 1B Rocket - Visible Passes

Search period start: 12 August 2020 00:00
Search period end: 22 August 2020 00:00
Orbit: 920 x 1202 km, 28.2° (Epoch: 11 August)

Date Brightness Start Highest point End Pass type
(mag) Time Alt. Az. Time Alt. Az. Time Alt. Az.
12 Aug 6.7 04:50:11 10° SSW 04:53:51 16° S 04:57:46 10° SE visible
13 Aug 6.6 03:52:57 15° S 03:53:11 15° S 03:56:43 10° SE visible
14 Aug 6.6 04:42:08 12° SSW 04:44:44 16° S 04:48:25 10° SSE visible
15 Aug 6.6 03:45:00 15° SSE 03:45:00 15° SSE 03:47:39 10° SE visible
16 Aug 6.6 04:34:20 13° SSW 04:35:38 14° S 04:38:46 10° SSE visible
17 Aug 6.8 03:37:21 12° SSE 03:37:21 12° SSE 03:38:21 10° SSE visible
18 Aug 6.7 04:26:50 11° S 04:26:50 11° S 04:28:32 10° S visible
